This is the latest recevied weather packets stored in our database for station/object W5MAI. If no packets are shown the sender has not sent any weather packets the latest 10 day(s).
| Time | Temp. | Humidity | Pressure | Rain* | Wind** | Luminosity | Snow |
|---|---|---|---|---|---|---|---|
| 1788185010 | 26.67° C | 88% | 1018.8 hPa | 0 mm | - | 265 W/m² | - |
| 1788184435 | 26.11° C | 89% | 1018.6 hPa | 0 mm | - | 202 W/m² | - |
| 1788183803 | 25.56° C | 91% | 1018.6 hPa | 0 mm | - | 192 W/m² | - |
| 1788183224 | 25° C | 93% | 1018.6 hPa | 0 mm | - | 56 W/m² | - |
| 1788182653 | 25° C | 93% | 1018.6 hPa | 0 mm | - | 123 W/m² | - |
| 1788182099 | 24.44° C | 93% | 1018.5 hPa | 0 mm | - | 97 W/m² | - |
| 1788181411 | 23.89° C | 94% | 1018.4 hPa | 0 mm | - | 58 W/m² | - |
| 1788180814 | 23.33° C | 94% | 1018.5 hPa | 0 mm | - | 60 W/m² | - |
| 1788180248 | 23.33° C | 93% | 1018.3 hPa | 0 mm | - | 49 W/m² | - |
| 1788179607 | 23.33° C | 92% | 1018.2 hPa | 0 mm | - | 19 W/m² | - |
| 1788179036 | 23.33° C | 92% | 1018 hPa | 0 mm | - | 9 W/m² | - |
| 1788178462 | 23.33° C | 92% | 1017.7 hPa | 0 mm | - | 5 W/m² | - |
| 1788177230 | 23.33° C | 91% | 1017.6 hPa | 0 mm | - | 0 W/m² | - |
| 1788176606 | 23.33° C | 91% | 1017.6 hPa | 0 mm | - | 0 W/m² | - |
| 1788176040 | 23.89° C | 90% | 1017.6 hPa | 0 mm | - | 0 W/m² | - |
| 1788175462 | 23.89° C | 90% | 1017.6 hPa | 0 mm | - | 0 W/m² | - |
| 1788173637 | 24.44° C | 90% | 1017.7 hPa | 0 mm | - | 0 W/m² | - |
| 1788173060 | 24.44° C | 89% | 1017.9 hPa | 0 mm | - | 0 W/m² | - |
| 1788172405 | 25° C | 89% | 1017.8 hPa | 0 mm | - | 0 W/m² | - |
| 1788171235 | 25° C | 89% | 1018 hPa | 0 mm | - | 0 W/m² | - |
| 1788170609 | 25° C | 89% | 1018 hPa | 0 mm | - | 0 W/m² | - |
| 1788170045 | 25° C | 89% | 1018 hPa | 0 mm | - | 0 W/m² | - |
| 1788168826 | 25° C | 89% | 1017.7 hPa | 0 mm | - | 0 W/m² | - |
| 1788168259 | 25° C | 89% | 1017.8 hPa | 0 mm | - | 0 W/m² | - |
| 1788167622 | 24.44° C | 89% | 1017.8 hPa | 0 mm | - | 0 W/m² | - |
* Rain latest hour (hover to see other rain measurements)
** Current wind speed in m/s (hover to see current wind gust speed)